Regional Weather Roundup
Issued by NWS

Home | Current Version | Previous Version | Graphics & Text | Print | Product List | Glossary On
Versions: 1 2 3 4 5 6 7 8 9 10 11 12 13 14 15 16 17 18 19 20 21 22 23 24 25 26 27 28 29 30 31 32 33 34 35 36 37 38 39 40 41 42 43 44 45 46 47 48 49 50
000
ASUS45 KTFX 181110
RWRMT
MONTANA REGIONAL WEATHER ROUNDUP
NATIONAL WEATHER SERVICE GREAT FALLS MT
400 AM MST WED JAN 18 2017

NOTE: "FAIR" INDICATES FEW OR NO CLOUDS BELOW 12000 FEET WITH NO
SIGNIFICANT WEATHER AND/OR OBSTRUCTIONS TO VISIBILITY.

MTZ001>007-043-181200-
WEST OF THE DIVIDE

CITY           SKY/WX    TMP DP  RH WIND       PRES   REMARKS
KALISPELL      CLOUDY    22  19  89 CALM      29.78S
MISSOULA       CLOUDY    17  13  84 CALM      29.83F
BUTTE          CLOUDY     8   3  80 S5        29.84F
MULLAN PASS    SNOW      27  26  96 MISG      29.71F VSB 1/2
ANACONDA         N/A     36  18  48 E17G25    29.78F WCI  25
DEER LODGE       N/A     37  23  56 SW15G21   29.77F WCI  28
EUREKA           N/A     27  25  93 CALM      29.74F
HAMILTON         N/A     16   9  73 NW7       29.76F WCI   6
PLAINS           N/A     20  12  71 CALM      29.82
$$

MTZ008-052>055-181200-
SOUTHWEST MONTANA

CITY           SKY/WX    TMP DP  RH WIND       PRES   REMARKS
BOZEMAN        CLOUDY     9   5  84 NE5       29.85F
DILLON         CLOUDY    25   9  50 S14       29.91R WCI  13
W YELLOWSTONE  CLOUDY   -13 -20  70 CALM      30.09F
ENNIS          CLEAR     28  14  54 S23G30    29.94R WCI  14
$$

MTZ009-010-012-014-046-048-049-054-181200-
EAST SLOPES AND CENTRAL MONTANA

CITY           SKY/WX    TMP DP  RH WIND       PRES   REMARKS
CUT BANK       MOCLDY    41  25  53 W10       29.55F
GREAT FALLS    CLOUDY    42  24  49 S13       29.65S
MALMSTROM AFB  CLOUDY    42  28  57 SW24G31   29.63F
HELENA         CLOUDY    15   9  76 S3        29.80F
AUGUSTA          N/A     35  24  64 S14G28    29.60R WCI  26
BOWMANS CRNR     N/A     33  22  64 S28       29.63S WCI  20
CHOTEAU          N/A     41  25  52 S15       29.60S
CONRAD           N/A     35  30  82 S12       29.63F WCI  27
POWER            N/A     35  26  68 S12       29.60F WCI  27
RAYNESFORD     MOCLDY    48  24  39 CALM      29.65F
ULM              N/A     38  25  60 MISG      29.68R
$$

MTZ011-013-016-021-045-047-050-051-181200-
NORTH CENTRAL MONTANA

CITY           SKY/WX    TMP DP  RH WIND       PRES   REMARKS
HAVRE          CLOUDY    36  29  75 SW12      29.55F WCI  28
LEWISTOWN      CLOUDY    43  27  53 SW29      29.65F
N BAR RANCH      N/A     39  27  60 CALM      29.70S
CHINOOK          N/A     34  27  75 NE8       29.56F WCI  27
DENTON           N/A     37  26  64 S13G23    29.61F WCI  29
FORT BENTON      N/A     52  27  37 MISG      29.60F
GEYSER           N/A     45  27  49 SW16      29.63F
GRASS RANGE      N/A     45  28  50 SW14      29.62F
JUDITH GAP       N/A     44  21  41 W13G21    29.73R
ROY              N/A     52  28  39 MISG      29.61F
STANFORD         N/A     40  27  59 S17       29.65F
WINIFRED         N/A     46  28  48 SW21      29.61F
$$

MTZ017>020-022>027-061-062-181200-
NORTHEAST MONTANA

CITY           SKY/WX    TMP DP  RH WIND       PRES   REMARKS
GLASGOW        CLOUDY    26  22  84 SE12      29.62F WCI  16
JORDAN           N/A     37  26  64 NW7       29.65F WCI  32
SIDNEY         CLOUDY    28  22  78 S13       29.70F WCI  17
WOLF POINT     CLOUDY    17  14  88 CALM      29.66F
PLENTYWOOD       N/A     28  25  86 E8        29.62F WCI  20
POPLAR           N/A     27  25  93 CALM      29.67S
SCOBEY           N/A     34  22  61 SW5       29.61
$$

MTZ028>42-056>058-181200-
SOUTHCENTRAL AND SOUTHEAST MONTANA

CITY           SKY/WX    TMP DP  RH WIND       PRES   REMARKS
BAKER          CLOUDY    37  21  52 CALM      29.77F
BILLINGS       CLOUDY    33  16  49 SW32G38   29.74F WCI  19
LIVINGSTON     CLOUDY    42  12  29 SW29G48   29.77S
MILES CITY     CLOUDY    27  16  63 SE6       29.76F WCI  20
BIG TIMBER     CLEAR     37  14  38 W20       29.79F WCI  27
EKALAKA          N/A     39  19  45 CALM      29.77
FORSYTH          N/A     21  16  79 N3        29.75S
HARLOWTON        N/A     33  20  58 NW7       29.74S WCI  27
LAUREL           N/A     33  16  50 S21       29.75F WCI  21
$$

REGIONAL REPORTS...DAKOTAS

CITY           SKY/WX    TMP DP  RH WIND       PRES   REMARKS
WILLISTON      CLOUDY    29  22  75 S6        29.68F WCI  23
MINOT          CLOUDY    37  28  70 SW13      29.64S WCI  29
DICKINSON      CLOUDY    34  21  59 W8        29.71F WCI  27
BEACH            N/A     34  21  60 SW18      29.75F WCI  23
CROSBY           N/A     30  27  86 S17G23    29.63S WCI  18
TIOGA            N/A     30  28  93 SW14      29.67S WCI  20
WATFORD CITY     N/A     32  25  74 SW10      29.70R WCI  24
BISMARCK       CLOUDY    17  12  80 CALM      29.75F
GRAND FORKS    CLOUDY    27  19  72 S15       29.69S WCI  15
FARGO          CLOUDY    20  16  84 S10       29.75F WCI   9
BUFFALO SD       N/A     34  22  61 W9        29.71F WCI  27
RAPID CITY     CLOUDY    25  17  72 CALM      29.83F
$$

REGIONAL REPORTS...WYOMING/IDAHO/WASHINGTON

CITY           SKY/WX    TMP DP  RH WIND       PRES   REMARKS
GILLETTE       CLOUDY    34  17  50 SW24G31   29.80F WCI  21
SHERIDAN       CLOUDY    15  10  80 S9        29.77F WCI   3
BUFFALO WY     CLOUDY    21  14  74 N3        29.80F
CODY           CLOUDY    13   5  70 NE3       29.86F
YELLOWSTONE LA   N/A     -8 -11  86 CALM      30.07F
IDAHO FALLS    CLOUDY    -2  -4  91 N7        30.14F WCI -15
SALMON         CLOUDY    -6  -9  84 CALM      30.10F
BOISE          PTCLDY     9   4  80 W3        30.09F HAZE
SPOKANE        LGT RAIN  34  31  88 SE14      29.71F FOG     WCI  25
$$

REGIONAL REPORTS...ALBERTA

CITY           SKY/WX    TMP DP  RH WIND       PRES   REMARKS
EDMONTON       CLEAR     32  21  64 E2        29.17F
CALGARY        PTCLDY    34  28  80 S3        29.29F
LETHBRIDGE     CLEAR     41  32  70 SW13      29.47S
MEDICINE HAT   CLEAR     43  30  61 SW18      29.42F
WATERTON GATE    N/A     41  28  60 SW35G52     N/A
CARDSTON         N/A     45  28  53 SW16G28     N/A
MILK RIVER       N/A     41  30  65 W5          N/A
ONEFOUR          N/A     41  28  60 S8          N/A
$$

REGIONAL REPORTS...SASKATCHEWAN

CITY           SKY/WX    TMP DP  RH WIND       PRES   REMARKS
SWIFT CURRENT  CLEAR     39  30  70 SW21G26   29.43F WCI  29
REGINA         MOCLDY    30  27  86 SE7       29.51F WCI  23
SASKATOON      CLOUDY    32  28  86 S9        29.42S WCI  24
CYPRESS HILLS    N/A     34  25  69 S9          N/A  WCI  26
VAL MARIE        N/A     21  19  93 S6          N/A  WCI  14
ROCKGLEN         N/A     36  28  75 SW14        N/A  WCI  27
ASSINIBOIA       N/A     32  28  86 SE6         N/A  WCI  26
$$



USA.gov is the U.S. government's official web portal to all federal, state and local government web resources and services.